DW6996 Weather Reports


Display with metric or nautical units.
time (UTC)temp
F
wind
direction
speed
MPH
gust
MPH
rain 1hr
in
rain 24hr
in
rain mn
in
humidity
%
barometer
mb
20260902163732 93 302 0.0 0.0 0.00 0.07 0.00 43 1013.4
20260902163232 92 302 0.0 0.0 0.00 0.07 0.00 43 1013.4
20260902162731 92 271 0.0 0.0 0.00 0.07 0.00 43 1013.5
20260902162230 92 270 0.0 0.0 0.00 0.07 0.00 43 1013.5
20260902161731 92 213 0.0 0.0 0.00 0.07 0.00 44 1013.4
20260902161231 92 153 0.0 0.0 0.00 0.07 0.00 44 1013.5
20260902160953 92 145 0.0 0.0 0.00 0.07 0.00 45 1013.4
20260902160454 91 144 0.0 0.0 0.00 0.07 0.00 46 1013.5
20260902155730 91 171 0.0 0.0 0.00 0.07 0.00 46 1013.5
20260902155232 91 171 0.0 0.0 0.00 0.07 0.00 46 1013.5
20260902154731 90 186 0.0 0.0 0.00 0.07 0.00 47 1013.5
20260902154456 90 186 0.0 0.0 0.00 0.07 0.00 47 1013.5
20260902153731 90 182 0.0 0.0 0.00 0.07 0.00 48 1013.5
20260902153230 89 201 0.0 0.0 0.00 0.07 0.00 49 1013.4
20260902152731 89 213 0.0 0.0 0.00 0.07 0.00 49 1013.4
20260902152231 89 211 0.0 0.0 0.00 0.07 0.00 50 1013.3
20260902151729 89 221 0.0 0.0 0.00 0.07 0.00 50 1013.3
20260902151229 88 201 0.0 0.0 0.00 0.07 0.00 50 1013.3
20260902150953 88 194 0.0 0.0 0.00 0.07 0.00 50 1013.3
20260902150230 87 188 0.0 0.0 0.00 0.07 0.00 50 1013.2
20260902145728 87 187 0.0 0.0 0.00 0.07 0.00 50 1013.2
20260902145228 87 187 0.0 0.0 0.00 0.07 0.00 50 1013.2
20260902144727 87 187 0.0 0.0 0.00 0.07 0.00 51 1013.0
20260902144225 87 185 0.0 0.0 0.00 0.07 0.00 52 1013.0
20260902143723 87 181 0.0 0.0 0.00 0.07 0.00 53 1012.9
20260902143221 87 181 0.0 0.0 0.00 0.07 0.00 53 1012.9
20260902142721 87 128 0.0 0.0 0.00 0.07 0.00 55 1012.8
20260902142220 87 128 0.0 0.0 0.00 0.07 0.00 55 1012.8
20260902141943 87 128 0.0 0.0 0.00 0.07 0.00 52 1012.7
20260902141218 87 128 0.0 0.0 0.00 0.07 0.00 49 1012.6
20260902140939 86 127 0.0 0.0 0.00 0.07 0.00 50 1012.6
20260902140214 86 128 0.0 0.0 0.00 0.07 0.00 50 1012.6
20260902135714 85 128 0.0 0.0 0.00 0.07 0.00 50 1012.6
20260902135212 85 127 0.0 0.0 0.00 0.07 0.00 51 1012.5
20260902134713 85 128 0.0 0.0 0.00 0.07 0.00 52 1012.5
20260902134434 84 128 0.0 0.0 0.00 0.07 0.00 52 1012.5
20260902133710 84 128 0.0 0.0 0.00 0.07 0.00 53 1012.4
20260902133208 84 128 0.0 0.0 0.00 0.07 0.00 54 1012.4
20260902132707 84 128 0.0 0.0 0.00 0.07 0.00 55 1012.4
20260902132204 84 128 0.0 0.0 0.00 0.07 0.00 54 1012.3
20260902131924 84 128 0.0 0.0 0.00 0.07 0.00 55 1012.2
20260902131201 84 128 0.0 0.0 0.00 0.07 0.00 53 1012.2
20260902130701 84 128 0.0 0.0 0.00 0.07 0.00 54 1012.1
20260902130201 84 128 0.0 0.0 0.00 0.07 0.00 55 1012.1
20260902125702 84 128 0.0 0.0 0.00 0.07 0.00 54 1012.1
20260902125200 84 128 0.0 0.0 0.00 0.07 0.00 53 1011.9
20260902124928 84 128 0.0 0.0 0.00 0.07 0.00 52 1011.9
20260902124201 84 128 0.0 0.0 0.00 0.07 0.00 52 1011.9
20260902123701 84 161 0.0 0.0 0.00 0.07 0.00 53 1011.8
20260902123201 85 161 0.0 0.0 0.00 0.07 0.00 53 1011.8
20260902122701 85 161 0.0 0.0 0.00 0.07 0.00 53 1011.8
20260902122200 85 161 0.0 0.0 0.00 0.07 0.00 51 1011.7
20260902122148 85 161 0.0 0.0 0.00 0.07 0.00 50 1011.8
20260902121201 86 161 0.0 0.0 0.00 0.07 0.00 50 1011.7
20260902120701 86 161 0.0 0.0 0.00 0.07 0.00 49 1011.6
20260902120201 86 161 0.0 0.0 0.00 0.07 0.00 49 1011.6
20260902115701 86 161 0.0 0.0 0.00 0.07 0.00 49 1011.6
20260902115201 86 161 0.0 0.0 0.00 0.07 0.00 48 1011.6
20260902114702 86 161 0.0 0.0 0.00 0.07 0.00 48 1011.5
20260902114200 86 161 0.0 0.0 0.00 0.07 0.00 48 1011.5
20260902113701 86 161 0.0 0.0 0.00 0.07 0.00 47 1011.5
20260902113200 86 161 0.0 0.0 0.00 0.07 0.00 47 1011.5
20260902112701 87 161 0.0 0.0 0.00 0.07 0.00 47 1011.5
20260902112201 87 161 0.0 0.0 0.00 0.07 0.00 47 1011.5
20260902111921 87 161 0.0 0.0 0.00 0.07 0.00 47 1011.4
20260902111201 87 161 0.0 0.0 0.00 0.07 0.00 47 1011.4
20260902110701 87 161 0.0 0.0 0.00 0.07 0.00 47 1011.4
20260902110426 87 161 0.0 0.0 0.00 0.07 0.00 47 1011.4
20260902105701 87 161 0.0 0.0 0.00 0.07 0.00 48 1011.5
20260902105201 87 161 0.0 0.0 0.00 0.07 0.00 47 1011.4
20260902104701 87 161 0.0 0.0 0.00 0.07 0.00 47 1011.5
20260902104200 87 161 0.0 0.0 0.00 0.07 0.00 47 1011.5
20260902103924 87 161 0.0 0.0 0.00 0.07 0.00 48 1011.5
20260902103201 87 161 0.0 0.0 0.00 0.07 0.00 47 1011.5
20260902102701 87 161 0.0 0.0 0.00 0.07 0.00 47 1011.5
20260902102200 87 161 0.0 0.0 0.00 0.07 0.00 47 1011.5
20260902101701 87 161 0.0 0.0 0.00 0.07 0.00 48 1011.5
20260902101201 87 161 0.0 0.0 0.00 0.07 0.00 47 1011.5
20260902100701 87 161 0.0 0.0 0.00 0.07 0.00 47 1011.5
20260902100201 87 161 0.0 0.0 0.00 0.07 0.00 48 1011.5
20260902095701 87 161 0.0 0.0 0.00 0.07 0.00 48 1011.6
20260902095201 87 161 0.0 0.0 0.00 0.07 0.00 48 1011.5
20260902094701 87 161 0.0 0.0 0.00 0.07 0.00 48 1011.5
20260902094201 87 161 0.0 0.0 0.00 0.07 0.00 48 1011.5
20260902093701 87 161 0.0 0.0 0.00 0.07 0.00 48 1011.5
20260902093425 87 161 0.0 0.0 0.00 0.07 0.00 48 1011.5
20260902092702 87 161 0.0 0.0 0.00 0.07 0.00 49 1011.5
20260902092200 88 161 0.0 0.0 0.00 0.07 0.00 49 1011.4
20260902091927 88 161 0.0 0.0 0.00 0.07 0.00 49 1011.4
20260902091201 88 161 0.0 0.0 0.00 0.07 0.00 49 1011.4
20260902090701 88 161 0.0 0.0 0.00 0.07 0.00 49 1011.4
20260902090201 88 161 0.0 0.0 0.00 0.07 0.00 49 1011.4
20260902085702 88 159 0.0 0.0 0.00 0.07 0.00 49 1011.4
20260902085201 88 159 0.0 0.0 0.00 0.07 0.00 50 1011.4
20260902084702 88 159 0.0 0.0 0.00 0.07 0.00 49 1011.4
20260902084200 88 159 0.0 0.0 0.00 0.07 0.00 50 1011.4
20260902083702 88 159 0.0 0.0 0.00 0.07 0.00 49 1011.5
20260902083200 88 175 0.0 0.0 0.00 0.07 0.00 49 1011.5
20260902082701 88 161 0.0 0.0 0.00 0.07 0.00 50 1011.5
20260902082201 88 161 0.0 0.0 0.00 0.07 0.00 50 1011.5
20260902081701 88 167 0.0 0.0 0.00 0.07 0.00 51 1011.5
20260902081201 88 167 0.0 0.0 0.00 0.07 0.00 51 1011.5
20260902080702 88 173 0.0 0.0 0.00 0.07 0.00 51 1011.5
20260902080200 87 173 0.0 0.0 0.00 0.07 0.00 51 1011.5
20260902075701 87 173 0.0 0.0 0.00 0.07 0.00 51 1011.5
20260902075203 87 170 0.0 0.0 0.00 0.07 0.00 51 1011.5
20260902074701 87 171 0.0 0.0 0.02 0.07 0.00 52 1011.5
20260902074424 87 171 0.0 0.0 0.07 0.07 0.00 53 1011.4
20260902073700 86 171 0.0 0.0 0.07 0.07 0.00 54 1011.3
20260902073202 86 171 0.0 0.0 0.07 0.07 0.00 54 1011.3
20260902072701 86 171 0.0 0.0 0.07 0.07 0.00 55 1011.3
20260902072201 85 169 0.0 0.0 0.07 0.07 0.00 56 1011.3
20260902071701 85 169 0.0 0.0 0.07 0.07 0.00 58 1011.3
20260902071201 85 169 0.0 0.0 0.07 0.07 0.00 59 1011.2
20260902070702 86 169 0.0 0.0 0.07 0.07 0.00 54 1011.1
20260902070421 87 175 0.0 0.0 0.07 0.07 0.00 55 1011.1
20260902065702 88 230 0.0 1.0 0.07 0.07 0.07 52 1011.1
20260902065201 89 223 1.0 18.0 0.07 0.07 0.06 48 1011.2
20260902064930 91 98 1.0 18.0 0.05 0.05 0.03 46 1011.5
20260902064202 92 169 0.0 0.0 0.00 0.00 0.00 40 1011.2
20260902063701 92 188 0.0 0.0 0.00 0.00 0.00 39 1011.1
20260902063201 93 179 0.0 0.0 0.00 0.00 0.00 39 1011.0
20260902062656 93 145 0.0 0.0 0.00 0.00 0.00 38 1010.8
20260902062152 93 130 0.0 1.0 0.00 0.00 0.00 38 1010.9
20260902061650 93 149 0.0 0.0 0.00 0.00 0.00 38 1010.9
20260902061150 93 137 0.0 0.0 0.00 0.00 0.00 38 1010.9
20260902060649 93 151 0.0 1.0 0.00 0.00 0.00 38 1010.9
20260902060149 93 139 0.0 1.0 0.00 0.00 0.00 37 1011.0
20260902055646 94 151 0.0 0.0 0.00 0.00 0.00 37 1011.0
20260902055144 94 134 0.0 5.0 0.00 0.00 0.00 36 1011.0
20260902054642 94 150 0.0 5.0 0.00 0.00 0.00 36 1010.9
20260902054142 94 122 0.0 1.0 0.00 0.00 0.00 36 1011.0
20260902053642 94 141 0.0 1.0 0.00 0.00 0.00 36 1010.9
20260902053140 94 125 0.0 1.0 0.00 0.00 0.00 36 1010.9
20260902052638 94 155 0.0 1.0 0.00 0.00 0.00 36 1011.0
20260902052136 94 157 0.0 0.0 0.00 0.00 0.00 36 1011.0
20260902051634 94 153 0.0 0.0 0.00 0.00 0.00 36 1011.0
20260902051132 94 162 0.0 0.0 0.00 0.00 0.00 36 1011.0
20260902050630 94 139 0.0 5.0 0.00 0.00 0.00 36 1011.0
20260902050129 94 165 0.0 5.0 0.00 0.00 0.00 36 1010.9
20260902045630 94 165 0.0 0.0 0.00 0.00 0.00 36 1010.9
20260902045129 94 164 0.0 1.0 0.00 0.00 0.00 36 1011.0
20260902045115 94 178 0.0 1.0 0.00 0.00 0.00 36 1010.9
20260902044614 94 159 0.0 1.0 0.00 0.00 0.00 36 1010.9
20260902043626 94 138 0.0 10.0 0.00 0.00 0.00 36 1010.9
20260902043120 94 150 0.0 10.0 0.00 0.00 0.00 36 1010.8
20260902042614 94 141 0.0 7.0 0.00 0.00 0.00 36 1010.7
20260902042107 94 170 0.0 9.0 0.00 0.00 0.00 36 1010.7
20260902041829 94 126 0.0 1.0 0.00 0.00 0.00 35 1010.6
20260902041816 94 140 0.0 9.0 0.00 0.00 0.00 35 1010.7
20260902040608 95 152 0.0 1.0 0.00 0.00 0.00 35 1010.4
20260902040107 95 152 0.0 0.0 0.00 0.00 0.00 35 1010.4
20260902035832 95 158 0.0 0.0 0.00 0.00 0.00 35 1010.4
20260902035331 95 170 0.0 0.0 0.00 0.00 0.00 35 1010.3
20260902034604 95 190 0.0 0.0 0.00 0.00 0.00 35 1010.2
20260902034104 94 190 0.0 0.0 0.00 0.00 0.00 35 1010.2
20260902033604 94 190 0.0 0.0 0.00 0.00 0.00 35 1010.1
20260902033324 94 190 0.0 0.0 0.00 0.00 0.00 35 1010.0
20260902032604 94 237 0.0 0.0 0.00 0.00 0.00 36 1009.8
20260902032101 94 238 0.0 0.0 0.00 0.00 0.00 35 1009.8
20260902031601 95 238 0.0 0.0 0.00 0.00 0.00 35 1009.7
20260902031323 95 238 0.0 0.0 0.00 0.00 0.00 35 1009.6
20260902030822 95 238 0.0 0.0 0.00 0.00 0.00 35 1009.5
20260902025601 95 238 0.0 0.0 0.00 0.00 0.00 34 1009.3
20260902025102 95 238 0.0 0.0 0.00 0.00 0.00 34 1009.3
20260902024601 95 238 0.0 0.0 0.00 0.00 0.00 34 1009.2
20260902024327 95 238 0.0 0.0 0.00 0.00 0.00 34 1009.2
20260902023558 95 238 0.0 0.0 0.00 0.00 0.00 34 1009.2
20260902023056 96 238 0.0 0.0 0.00 0.00 0.00 33 1009.2
20260902022554 96 238 0.0 0.0 0.00 0.00 0.00 33 1009.2
20260902022051 96 238 0.0 0.0 0.00 0.00 0.00 33 1009.1
20260902021550 96 238 0.0 0.0 0.00 0.00 0.00 33 1009.1
20260902021048 96 238 0.0 0.0 0.00 0.00 0.00 32 1009.1
20260902020548 96 238 0.0 0.0 0.00 0.00 0.00 32 1009.1
20260902020309 96 238 0.0 0.0 0.00 0.00 0.00 32 1009.1
20260902015546 97 238 0.0 0.0 0.00 0.00 0.00 32 1009.0
20260902015046 97 238 0.0 0.0 0.00 0.00 0.00 32 1009.0
20260902014544 97 145 0.0 0.0 0.00 0.00 0.00 33 1008.9
20260902014041 97 144 0.0 0.0 0.00 0.00 0.00 32 1008.9
20260902013542 97 145 0.0 0.0 0.00 0.00 0.00 32 1008.9
20260902013042 97 145 0.0 0.0 0.00 0.00 0.00 32 1009.0
20260902012542 98 144 0.0 0.0 0.00 0.00 0.00 31 1009.0
20260902012040 98 145 0.0 0.0 0.00 0.00 0.00 31 1009.0
20260902011536 98 152 0.0 0.0 0.00 0.00 0.00 32 1009.0
20260902011300 98 239 0.0 0.0 0.00 0.00 0.00 31 1009.0
20260902010532 98 257 0.0 0.0 0.00 0.00 0.00 31 1009.1
20260902010252 98 150 0.0 0.0 0.00 0.00 0.00 32 1009.2
20260902005532 98 150 0.0 0.0 0.00 0.00 0.00 32 1009.2
20260902005030 98 150 0.0 0.0 0.00 0.00 0.00 31 1009.2
20260902004758 98 120 0.0 0.0 0.00 0.00 0.00 31 1009.2
20260902004031 98 208 0.0 0.0 0.00 0.00 0.00 31 1009.3
20260902003529 99 210 0.0 0.0 0.00 0.00 0.00 31 1009.3
20260902003030 99 173 0.0 1.0 0.00 0.00 0.00 31 1009.4
20260902002530 99 153 0.0 1.0 0.00 0.00 0.00 31 1009.4
20260902002030 99 182 0.0 1.0 0.00 0.00 0.00 31 1009.4
20260902001529 99 223 0.0 5.0 0.00 0.00 0.00 31 1009.5
20260902001029 100 178 0.0 5.0 0.00 0.00 0.00 32 1009.4
20260902000530 100 226 0.0 1.0 0.00 0.00 0.00 32 1009.5
20260902000251 100 337 0.0 4.0 0.00 0.00 0.00 33 1009.4
20260901235529 100 190 0.0 4.0 0.00 0.00 0.00 32 1009.5
20260901235029 100 254 0.0 0.0 0.00 0.00 0.00 33 1009.6
20260901234529 99 255 0.0 0.0 0.00 0.00 0.00 33 1009.6
20260901234028 99 234 0.0 1.0 0.00 0.00 0.00 33 1009.7
20260901233529 99 235 0.0 1.0 0.00 0.00 0.00 33 1009.8
20260901233252 99 180 0.0 1.0 0.00 0.00 0.00 33 1009.8
20260901232529 99 153 0.0 0.0 0.00 0.00 0.00 34 1009.8
20260901232029 98 236 0.0 0.0 0.00 0.00 0.00 34 1009.8
20260901231529 98 9 0.0 0.0 0.00 0.00 0.00 32 1009.9
20260901231029 99 171 0.0 2.0 0.00 0.00 0.00 32 1010.0
20260901230529 99 194 0.0 9.0 0.00 0.00 0.00 33 1010.0
20260901230029 99 216 0.0 9.0 0.00 0.00 0.00 33 1010.1
20260901225529 99 188 0.0 5.0 0.00 0.00 0.00 33 1010.1
20260901225251 99 188 0.0 5.0 0.00 0.00 0.00 33 1010.2
20260901224529 99 212 0.0 1.0 0.00 0.00 0.00 33 1010.1
20260901224253 99 234 0.0 2.0 0.00 0.00 0.00 34 1010.1
20260901223757 99 230 0.0 2.0 0.00 0.00 0.00 33 1010.2
20260901223249 99 291 0.0 2.0 0.00 0.00 0.00 34 1010.2
20260901222529 98 259 0.0 2.0 0.00 0.00 0.00 34 1010.3
20260901222256 99 229 0.0 1.0 0.00 0.00 0.00 34 1010.3
20260901221530 99 247 0.0 2.0 0.00 0.00 0.00 34 1010.4
20260901221030 99 214 0.0 6.0 0.00 0.00 0.00 34 1010.4
20260901220529 99 150 0.0 6.0 0.00 0.00 0.00 34 1010.6
20260901220250 99 151 0.0 1.0 0.00 0.00 0.00 34 1010.7
20260901215529 99 193 0.0 0.0 0.00 0.00 0.00 35 1010.7
20260901215029 99 180 0.0 0.0 0.00 0.00 0.00 35 1010.8
20260901214528 98 212 0.0 1.0 0.00 0.00 0.00 36 1010.9
20260901214516 97 150 0.0 1.0 0.00 0.00 0.00 36 1011.0
20260901213529 98 130 0.0 6.0 0.00 0.00 0.00 36 1011.1
20260901213029 98 134 0.0 7.0 0.00 0.00 0.00 35 1011.2
20260901212529 97 234 0.0 7.0 0.00 0.00 0.00 36 1011.2
20260901212028 97 210 0.0 12.0 0.00 0.00 0.00 37 1011.3
20260901211529 97 52 0.0 12.0 0.00 0.00 0.00 37 1011.4
20260901211028 98 147 0.0 4.0 0.00 0.00 0.00 37 1011.5
20260901210529 98 198 0.0 4.0 0.00 0.00 0.00 37 1011.5
20260901210024 98 161 0.0 4.0 0.00 0.00 0.00 37 1011.6
20260901205519 97 202 0.0 7.0 0.00 0.00 0.00 36 1011.7
20260901205017 97 129 0.0 7.0 0.00 0.00 0.00 37 1011.8
20260901204517 97 205 0.0 6.0 0.00 0.00 0.00 37 1011.9
20260901204015 98 159 0.0 2.0 0.00 0.00 0.00 37 1012.0
20260901203738 97 167 0.0 2.0 0.00 0.00 0.00 37 1012.0
20260901203013 97 217 0.0 6.0 0.00 0.00 0.00 38 1012.1
20260901202514 97 169 0.0 6.0 0.00 0.00 0.00 38 1012.1
20260901202011 97 178 0.0 1.0 0.00 0.00 0.00 38 1012.1
20260901201509 96 127 0.0 8.0 0.00 0.00 0.00 38 1012.2
20260901201229 96 144 0.0 8.0 0.00 0.00 0.00 38 1012.3
20260901200509 96 190 0.0 4.0 0.00 0.00 0.00 39 1012.3
20260901200007 96 182 0.0 6.0 0.00 0.00 0.00 39 1012.4
20260901195507 96 215 0.0 6.0 0.00 0.00 0.00 39 1012.5
20260901195007 96 157 0.0 6.0 0.00 0.00 0.00 39 1012.5
20260901194507 95 157 0.0 6.0 0.00 0.00 0.00 39 1012.6
20260901194007 95 169 0.0 3.0 0.00 0.00 0.00 40 1012.6
20260901193504 95 114 0.0 3.0 0.00 0.00 0.00 40 1012.7
20260901193005 95 127 0.0 1.0 0.00 0.00 0.00 40 1012.8
20260901192506 95 167 0.0 0.0 0.00 0.00 0.00 40 1012.9
20260901192002 94 252 0.0 0.0 0.00 0.00 0.00 41 1012.9
20260901191501 94 167 0.0 0.0 0.00 0.00 0.00 40 1013.2
20260901190955 94 143 0.0 0.0 0.00 0.00 0.00 40 1013.4
20260901190448 95 164 0.0 1.0 0.00 0.00 0.00 40 1013.4
20260901185943 94 165 0.0 1.0 0.00 0.00 0.00 41 1013.4
20260901185444 94 146 0.0 1.0 0.00 0.00 0.00 40 1013.4
20260901184942 94 166 0.0 1.0 0.00 0.00 0.00 41 1013.5
20260901184440 93 155 0.0 4.0 0.00 0.00 0.00 42 1013.5
20260901183939 93 107 0.0 4.0 0.00 0.00 0.00 42 1013.6
20260901183700 93 131 0.0 1.0 0.00 0.00 0.00 42 1013.6
20260901182937 93 142 0.0 1.0 0.00 0.00 0.00 42 1013.7
20260901182437 92 191 0.0 0.0 0.00 0.00 0.00 42 1013.8
20260901181937 92 191 0.0 0.0 0.00 0.00 0.00 43 1013.8
20260901181437 92 51 0.0 0.0 0.00 0.00 0.00 42 1013.8
20260901180936 93 130 0.0 0.0 0.00 0.00 0.00 43 1013.9
20260901180436 92 221 0.0 0.0 0.00 0.00 0.00 43 1013.8
20260901180158 92 190 0.0 5.0 0.00 0.00 0.00 44 1014.0
20260901175434 92 140 0.0 5.0 0.00 0.00 0.00 45 1014.0
20260901174934 91 221 0.0 1.0 0.00 0.00 0.00 45 1014.0
20260901174434 91 140 0.0 1.0 0.00 0.00 0.00 46 1014.1
20260901173935 90 217 0.0 1.0 0.00 0.00 0.00 46 1014.1
20260901173435 90 130 0.0 2.0 0.00 0.00 0.00 46 1014.1
20260901172933 90 221 0.0 2.0 0.00 0.00 0.00 47 1014.2
20260901172432 89 189 0.0 7.0 0.00 0.00 0.00 47 1014.2
20260901171932 89 128 0.0 7.0 0.00 0.00 0.00 47 1014.3
20260901171432 89 168 0.0 2.0 0.00 0.00 0.00 46 1014.3
20260901170930 89 162 0.0 0.0 0.00 0.00 0.00 47 1014.3
20260901170430 88 167 1.0 9.0 0.00 0.00 0.00 49 1014.2
20260901165930 88 130 1.0 11.0 0.00 0.00 0.00 48 1014.2
20260901165651 88 144 0.0 11.0 0.00 0.00 0.00 48 1014.1
20260901164932 87 183 0.0 5.0 0.00 0.00 0.00 48 1014.0
20260901164431 87 160 0.0 5.0 0.00 0.00 0.00 49 1014.1